Hourly Weather Roundup
Issued by NWS Central Illinois

Current Version | Previous Version | Text Only | Print | Product List | Glossary On
Versions: 1 2 3 4 5 6 7 8 9 10 11 12 13 14 15 16 17 18 19 20 21 22 23 24 25 26 27 28 29 30 31 32 33 34 35 36 37 38 39 40 41 42 43 44 45 46 47 48 49 50
259
NZUS43 KILX 052110
HWRILX

AREA WEATHER ROUNDUP
NATIONAL WEATHER SERVICE, LINCOLN IL
300 PM CST MON DEC 05 2016


CITY           SKY/WX    TMP DP  RH WIND       PRES   REMARKS
BLOOMINGTON    CLOUDY    33  32  96 SE8       29.96F WCI  26
CHAMPAIGN      PTSUNNY   38  34  85 E12       29.96F WCI  30
DANVILLE       MOSUNNY   39  34  80 E7        29.96F WCI  34
DECATUR        CLOUDY    39  34  82 SE12      29.95F WCI  32
EFFINGHAM      PTSUNNY   42  38  85 E7        29.98F
FLORA          CLOUDY    41  36  81 SE9       29.98F
GALESBURG      CLOUDY    35  34  94 SE7       29.92F WCI  29
JACKSONVILLE   CLOUDY    40  36  86 SE9       29.93S WCI  34
LACON          CLOUDY    33  32  96 S6        29.96F WCI  28
LAWRENCEVILLE  MOSUNNY   42  35  76 SE8       30.00F
LITCHFIELD     CLOUDY    40  36  84 SE9       29.94F WCI  34
$$


CITY           SKY/WX    TMP DP  RH WIND       PRES   REMARKS
LINCOLN        CLOUDY    38  36  92 E6        29.96S WCI  33
MACOMB         CLOUDY    37  36  96 SE12      29.94S WCI  29
MATTOON        MOSUNNY   41  34  76 SE8       29.96F
MT CARMEL AP   PTSUNNY   41  34  76 SE6       29.99F
OLNEY-NOBLE AP CLOUDY    41  36  81 SE8       29.99S
PARIS          SUNNY     42  36  79 E8        29.99F
PEORIA         CLOUDY    36  34  92 SE8       29.97S WCI  30
PONTIAC        CLOUDY    33  33 100 S9        29.99F WCI  25
RANTOUL        CLOUDY    39  36  90 E6        29.98F WCI  34
SPRINGFIELD    CLOUDY    40  36  86 SE12      29.95F WCI  33
TAYLORVILLE    PTSUNNY   40  35  85 SE7       29.95F WCI  35
$$

...REGIONAL REPORTS...


CITY           SKY/WX    TMP DP  RH WIND       PRES   REMARKS
CHICAGO O`HARE CLOUDY    32  30  92 S9        30.00S FOG     WCI  24
KANKAKEE       CLOUDY    33  31  94 CALM      30.02S
MOLINE         CLOUDY    36  32  85 SE10      29.92F FOG     WCI  28
MOUNT STERLING CLOUDY    38  36  94 SE8       29.90F WCI  32
MOUNT VERNON   NOT AVBL
PITTSFIELD     PTSUNNY   40  38  92 E8        29.91F WCI  35
QUINCY         PTSUNNY   39  37  92 SE12      29.89F FOG     WCI  32
ROCKFORD       CLOUDY    33  31  92 S13       29.99F FOG     WCI  24
$$


CITY           SKY/WX    TMP DP  RH WIND       PRES   REMARKS
BURLINGTON     CLOUDY    35  35 100 SE7       29.90F FOG     WCI  29
CEDAR RAPIDS   CLOUDY    33  33 100 S14       29.86F FOG     WCI  23
DES MOINES     PTSUNNY   49  35  58 S18       29.76F
KIRKSVILLE     CLOUDY    39  38  96 SE8       29.85F FOG     WCI  33
OTTUMWA        SUNNY     44  35  70 S15       29.83F
ST LOUIS       PTSUNNY   46  34  62 SE12      29.92F
$$


CITY           SKY/WX    TMP DP  RH WIND       PRES   REMARKS
TERRE HAUTE    MOSUNNY   43  33  68 SE7       29.98F
EVANSVILLE     CLOUDY    43  34  70 E6        29.99F
INDIANAPOLIS   PTSUNNY   42  33  70 E8        30.00F
LAFAYETTE      SUNNY     39  34  82 E7        30.01F WCI  34
MADISON        CLOUDY    32  30  92 S13       29.93S FOG     WCI  22
MILWAUKEE      CLOUDY    34  31  88 S13       29.98R FOG     WCI  25
$$






USA.gov is the U.S. government's official web portal to all federal, state and local government web resources and services.